Radiation Dose at Monitoring Post of Fukushima Daini Nuclear Power Station
Date,Time,MP-1(microSv/h),MP-2(microSv/h),MP-3(microSv/h),MP-4(microSv/h),MP-5(microSv/h),MP-6(microSv/h),MP-7(microSv/h),Wind Direction,Wind Velocity(m/s),Rain
2017/04/25,00:00,0.378,0.231,0.397,0.367,0.331,0.191,0.165,south-southwest,7.8,No
2017/04/25,00:10,0.379,0.231,0.394,0.366,0.332,0.192,0.165,south-southwest,8.4,No
2017/04/25,00:20,0.378,0.230,0.397,0.365,0.329,0.192,0.164,south-southwest,8.5,No
2017/04/25,00:30,0.378,0.231,0.396,0.368,0.332,0.192,0.165,south-southwest,9.5,No
2017/04/25,00:40,0.379,0.232,0.394,0.366,0.329,0.192,0.166,south-southwest,10.4,No
2017/04/25,00:50,0.377,0.230,0.397,0.363,0.330,0.192,0.165,south-southwest,10.7,No
2017/04/25,01:00,0.380,0.230,0.394,0.368,0.332,0.192,0.165,south-southwest,10.4,No
2017/04/25,01:10,0.378,0.232,0.395,0.365,0.329,0.192,0.166,south-southwest,9.2,No
2017/04/25,01:20,0.378,0.231,0.396,0.365,0.328,0.192,0.166,south-southwest,9.1,No
2017/04/25,01:30,0.379,0.230,0.395,0.366,0.332,0.193,0.165,south-southwest,7.8,No
2017/04/25,01:40,0.378,0.230,0.396,0.364,0.331,0.192,0.165,south-southwest,9.5,No
2017/04/25,01:50,0.378,0.230,0.396,0.364,0.331,0.192,0.165,south-southwest,10.1,No
2017/04/25,02:00,0.379,0.230,0.394,0.366,0.333,0.191,0.166,south-southwest,9.0,No
2017/04/25,02:10,0.379,0.230,0.396,0.365,0.330,0.192,0.165,south-southwest,8.1,No
2017/04/25,02:20,0.377,0.231,0.396,0.366,0.332,0.191,0.166,south-southwest,8.4,No
2017/04/25,02:30,0.378,0.231,0.396,0.367,0.332,0.192,0.166,south-southwest,8.4,No
2017/04/25,02:40,0.379,0.229,0.397,0.365,0.329,0.191,0.166,south-southwest,7.5,No
2017/04/25,02:50,0.377,0.230,0.396,0.366,0.331,0.192,0.164,south-southwest,7.1,No
2017/04/25,03:00,0.380,0.230,0.394,0.365,0.332,0.192,0.165,south-southwest,7.4,No
2017/04/25,03:10,0.379,0.230,0.396,0.365,0.329,0.192,0.164,south-southwest,6.5,No
2017/04/25,03:20,0.378,0.229,0.396,0.367,0.331,0.193,0.166,south-southwest,6.3,No
2017/04/25,03:30,0.379,0.230,0.395,0.367,0.330,0.192,0.165,south-southwest,6.2,No
2017/04/25,03:40,0.377,0.231,0.397,0.365,0.329,0.191,0.165,south-southwest,5.3,No
2017/04/25,03:50,0.378,0.230,0.396,0.367,0.332,0.193,0.166,south-southwest,4.8,No
2017/04/25,04:00,0.380,0.231,0.396,0.366,0.332,0.192,0.166,south-southwest,5.0,No
2017/04/25,04:10,0.377,0.230,0.396,0.364,0.330,0.192,0.165,south-southwest,4.5,No
2017/04/25,04:20,0.378,0.231,0.396,0.366,0.331,0.192,0.165,south-southwest,3.9,No
2017/04/25,04:30,0.380,0.230,0.394,0.366,0.332,0.193,0.164,south-southwest,5.5,No
2017/04/25,04:40,0.378,0.230,0.396,0.364,0.330,0.192,0.165,south-southwest,6.4,No
2017/04/25,04:50,0.378,0.232,0.396,0.366,0.330,0.192,0.166,south-southwest,6.2,No
2017/04/25,05:00,0.379,0.231,0.395,0.365,0.331,0.192,0.165,south-southwest,7.3,No
2017/04/25,05:10,0.378,0.231,0.396,0.365,0.330,0.192,0.166,south-southwest,6.2,No
2017/04/25,05:20,0.377,0.230,0.396,0.366,0.330,0.192,0.167,south-southwest,5.3,No
2017/04/25,05:30,0.379,0.232,0.396,0.365,0.330,0.191,0.164,south-southwest,5.9,No
2017/04/25,05:40,0.377,0.231,0.394,0.367,0.329,0.192,0.165,south-southwest,5.3,No
2017/04/25,05:50,0.377,0.230,0.397,0.367,0.331,0.192,0.165,south-southwest,5.2,No
2017/04/25,06:00,0.380,0.231,0.395,0.365,0.331,0.192,0.165,south-southwest,5.6,No
2017/04/25,06:10,0.378,0.231,0.395,0.365,0.329,0.193,0.165,south-southwest,4.9,No
2017/04/25,06:20,0.378,0.230,0.396,0.367,0.331,0.191,0.166,southwest,4.0,No
2017/04/25,06:30,0.380,0.230,0.395,0.364,0.329,0.192,0.164,southwest,3.9,No
2017/04/25,06:40,0.377,0.231,0.395,0.366,0.331,0.192,0.166,south-southwest,4.3,No
2017/04/25,06:50,0.379,0.232,0.397,0.364,0.330,0.193,0.164,southwest,3.6,No
2017/04/25,07:00,0.380,0.231,0.395,0.363,0.329,0.192,0.165,south-southwest,2.2,No
2017/04/25,07:10,0.378,0.229,0.394,0.366,0.329,0.192,0.165,south-southwest,2.3,No
2017/04/25,07:20,0.378,0.230,0.392,0.362,0.329,0.191,0.163,south-southwest,4.2,No
2017/04/25,07:30,0.376,0.230,0.394,0.365,0.332,0.193,0.164,south-southwest,2.1,No
2017/04/25,07:40,0.379,0.230,0.394,0.364,0.329,0.192,0.164,south,5.9,No
2017/04/25,07:50,0.378,0.230,0.395,0.363,0.332,0.192,0.166,south,7.3,No
2017/04/25,08:00,0.379,0.228,0.395,0.366,0.330,0.191,0.165,south,7.5,No
2017/04/25,08:10,0.373,0.231,0.394,0.362,0.331,0.192,0.164,south,8.4,No
2017/04/25,08:20,0.377,0.230,0.393,0.366,0.329,0.192,0.165,south,8.3,No
2017/04/25,08:30,0.376,0.229,0.395,0.363,0.331,0.191,0.164,south,10.4,No
2017/04/25,08:40,0.377,0.229,0.397,0.361,0.327,0.192,0.166,south,10.1,No
2017/04/25,08:50,0.378,0.230,0.395,0.365,0.330,0.191,0.163,south,9.2,No
2017/04/25,09:00,0.375,0.231,0.395,0.364,0.329,0.192,0.166,south,10.7,No
2017/04/25,09:10,0.378,0.229,0.394,0.363,0.331,0.191,0.165,south,10.8,No
2017/04/25,09:20,0.377,0.230,0.396,0.365,0.330,0.192,0.164,south,11.6,No
2017/04/25,09:30,0.374,0.229,0.394,0.362,0.329,0.191,0.165,south,13.0,No
2017/04/25,09:40,0.377,0.230,0.397,0.365,0.333,0.191,0.164,south,11.8,No
2017/04/25,09:50,0.378,0.229,0.393,0.366,0.327,0.190,0.164,south,12.7,No
2017/04/25,10:00,0.372,0.230,0.397,0.362,0.332,0.193,0.165,south,14.7,No
2017/04/25,10:10,0.378,0.231,0.393,0.367,0.328,0.192,0.165,south,13.1,No
2017/04/25,10:20,0.378,0.229,0.398,0.365,0.331,0.192,0.165,south,13.7,No
2017/04/25,10:30,0.374,0.230,0.395,0.366,0.328,0.192,0.164,south,13.4,No
2017/04/25,10:40,-,0.229,0.394,0.367,0.330,0.191,0.165,south,14.6,No
2017/04/25,10:50,-,0.230,0.394,0.362,0.330,0.193,0.165,south,13.5,No
2017/04/25,11:00,-,0.230,0.391,0.368,0.330,0.192,0.166,south,12.6,No
2017/04/25,11:10,-,0.230,0.395,0.364,0.332,0.192,0.165,south,16.2,No
2017/04/25,11:20,-,0.231,0.395,0.365,0.329,0.193,0.164,south,15.5,No
2017/04/25,11:30,-,0.230,0.392,0.366,0.332,0.192,0.165,south,15.6,No
2017/04/25,11:40,-,0.231,0.397,0.362,0.329,0.193,0.164,south,16.3,No
2017/04/25,11:50,0.376,0.229,0.394,0.367,0.330,0.192,0.165,south,17.4,No
2017/04/25,12:00,0.375,0.232,0.394,0.365,0.331,0.192,0.166,south,16.0,No
2017/04/25,12:10,0.378,0.230,0.396,0.365,0.329,0.192,0.165,south,15.1,No
2017/04/25,12:20,0.378,0.231,0.395,0.366,0.332,0.191,0.166,south,13.7,No
2017/04/25,12:30,0.375,0.231,0.396,0.365,0.329,0.193,0.164,south,16.2,No
2017/04/25,12:40,0.380,0.231,0.398,0.367,0.331,0.192,0.167,south,12.8,No
2017/04/25,12:50,0.377,0.231,0.395,0.365,0.331,0.192,0.166,south,14.0,No
2017/04/25,13:00,0.375,0.230,0.393,0.366,0.328,0.192,0.166,south,13.9,No
2017/04/25,13:10,0.378,0.232,0.397,0.365,0.333,0.190,0.166,south,15.3,No
2017/04/25,13:20,0.377,0.231,0.395,0.364,0.329,0.192,0.164,south,16.9,No
2017/04/25,13:30,0.376,0.232,0.395,0.370,0.329,0.191,0.167,south,18.8,No
2017/04/25,13:40,0.380,0.230,0.398,0.366,0.330,0.191,0.165,south,16.8,No
2017/04/25,13:50,0.376,-,0.394,0.366,0.327,0.192,0.166,south,17.4,No
2017/04/25,14:00,0.380,-,0.394,0.368,0.332,0.191,0.166,south,16.0,No
2017/04/25,14:10,0.377,-,0.399,0.365,0.330,0.193,0.165,south,16.3,No
2017/04/25,14:20,0.375,-,0.394,0.367,0.330,0.191,0.166,south,15.6,No
2017/04/25,14:30,0.378,-,0.396,0.364,0.330,0.192,0.165,south,15.1,No
2017/04/25,14:40,0.375,-,0.398,0.369,0.328,0.192,0.166,south,14.0,No
2017/04/25,14:50,0.378,0.229,0.396,0.365,0.331,0.191,0.165,south,16.4,No
2017/04/25,15:00,0.379,0.231,0.397,0.366,0.330,0.193,0.166,south,16.8,No
2017/04/25,15:10,0.377,0.230,0.397,0.368,0.331,0.192,0.165,south,18.2,No
2017/04/25,15:20,0.380,0.231,0.393,0.369,0.331,0.192,0.165,south,16.2,No
2017/04/25,15:30,0.377,0.231,-,0.367,0.327,0.192,0.165,south,16.3,No
2017/04/25,15:40,0.379,0.231,-,0.366,0.331,0.192,0.166,south,18.2,No
2017/04/25,15:50,0.377,0.231,-,0.366,0.331,0.193,0.166,south,14.7,No
2017/04/25,16:00,0.380,0.231,-,0.369,0.326,0.192,0.166,south,14.8,No
2017/04/25,16:10,0.379,0.230,-,0.368,0.333,0.193,0.165,south,14.8,No
2017/04/25,16:20,0.378,0.232,0.395,0.368,0.330,0.193,0.166,south-southwest,12.9,No
2017/04/25,16:30,0.381,0.232,0.399,0.366,0.329,0.192,0.165,south-southwest,8.6,No
2017/04/25,16:40,0.378,0.233,0.397,0.368,0.329,0.192,0.165,south,10.8,No
2017/04/25,16:50,0.381,0.231,0.398,0.367,0.330,0.192,0.166,south-southwest,9.0,No
2017/04/25,17:00,0.377,0.231,0.396,0.369,0.332,0.194,0.166,southwest,4.6,No
2017/04/25,17:10,0.381,0.231,0.399,0.369,0.330,0.192,0.166,southwest,6.8,No
2017/04/25,17:20,0.375,0.231,0.395,0.367,0.331,0.193,0.167,south-southwest,8.0,No
2017/04/25,17:30,0.379,0.231,0.398,0.366,0.330,0.192,0.166,south-southwest,12.1,No
2017/04/25,17:40,0.377,0.231,0.396,0.369,0.329,0.193,0.166,south-southwest,11.0,No
2017/04/25,17:50,0.380,0.232,0.400,0.366,0.331,0.192,0.166,south-southwest,7.2,No
2017/04/25,18:00,0.377,0.230,0.396,0.368,0.331,0.193,0.166,west-southwest,3.6,No
2017/04/25,18:10,0.381,0.232,0.399,0.367,0.332,0.192,0.167,southwest,4.3,No
2017/04/25,18:20,0.378,0.232,0.398,0.369,0.333,0.193,0.166,southwest,5.3,No
2017/04/25,18:30,0.381,0.232,0.397,0.367,0.331,0.192,0.165,south-southwest,9.8,No
2017/04/25,18:40,0.379,0.232,0.398,0.370,0.332,0.192,0.166,south-southwest,5.8,No
2017/04/25,18:50,0.378,0.231,0.398,0.370,0.330,0.192,0.166,south-southwest,8.2,No
2017/04/25,19:00,0.381,0.231,0.398,0.367,0.331,0.192,0.166,south-southwest,8.9,No
2017/04/25,19:10,0.378,0.232,0.397,0.369,0.331,0.192,0.166,south-southwest,12.0,No
2017/04/25,19:20,0.381,0.231,0.398,0.367,0.331,0.193,0.166,south-southwest,12.1,No
2017/04/25,19:30,0.377,0.232,0.399,0.370,0.332,0.192,0.166,south,13.9,No
2017/04/25,19:40,0.380,0.232,0.395,0.368,0.330,0.191,0.166,south-southwest,13.2,No
2017/04/25,19:50,0.380,0.231,0.397,0.368,0.333,0.192,0.166,south-southwest,13.1,No
2017/04/25,20:00,0.380,0.231,0.397,0.368,0.330,0.193,0.166,south,13.8,No
2017/04/25,20:10,0.379,0.231,0.398,0.367,0.333,0.193,0.165,south-southwest,13.3,No
2017/04/25,20:20,0.378,0.231,0.398,0.369,0.331,0.191,0.166,south,13.2,No
2017/04/25,20:30,0.380,0.232,0.396,0.367,0.329,0.193,0.167,south-southwest,14.7,No
2017/04/25,20:40,0.379,0.231,0.400,0.370,0.333,0.193,0.166,south-southwest,14.2,No
2017/04/25,20:50,0.380,0.231,0.396,0.367,0.329,0.193,0.167,south-southwest,12.4,No
2017/04/25,21:00,0.377,0.231,0.399,0.367,0.332,0.192,0.167,south-southwest,12.6,No
2017/04/25,21:10,0.379,0.231,0.398,0.370,0.330,0.192,0.166,south-southwest,14.1,No
2017/04/25,21:20,0.379,0.231,0.399,0.368,0.332,0.192,0.166,south-southwest,12.9,No
2017/04/25,21:30,0.378,0.233,0.398,0.369,0.332,0.192,0.167,south-southwest,13.5,No
2017/04/25,21:40,0.379,0.232,0.396,0.368,0.330,0.193,0.165,south-southwest,13.4,No
2017/04/25,21:50,0.378,0.231,0.399,0.367,0.332,0.193,0.166,south-southwest,13.1,No
2017/04/25,22:00,0.381,0.231,0.398,0.369,0.330,0.192,0.166,south-southwest,13.2,No
2017/04/25,22:10,0.378,0.230,0.397,0.366,0.332,0.193,0.167,south-southwest,10.6,No
2017/04/25,22:20,0.379,0.231,0.399,0.368,0.331,0.193,0.166,south-southwest,12.1,No
2017/04/25,22:30,0.378,0.231,0.398,0.368,0.331,0.192,0.165,south-southwest,11.2,No
2017/04/25,22:40,0.379,0.232,0.397,0.368,0.333,0.194,0.167,south-southwest,10.6,No
2017/04/25,22:50,0.381,0.231,0.399,0.370,0.330,0.193,0.166,south-southwest,10.7,No
2017/04/25,23:00,0.378,0.232,0.397,0.367,0.331,0.193,0.166,south-southwest,11.6,No
2017/04/25,23:10,0.379,0.231,0.398,0.370,0.331,0.192,0.166,south-southwest,10.3,No
2017/04/25,23:20,0.378,0.231,0.396,0.367,0.332,0.192,0.165,south-southwest,9.4,No
2017/04/25,23:30,0.380,0.231,0.399,0.368,0.332,0.193,0.167,south-southwest,10.4,No
2017/04/25,23:40,0.379,0.230,0.399,0.368,0.331,0.192,0.166,south-southwest,8.6,No
2017/04/25,23:50,0.379,0.232,0.396,0.366,0.331,0.192,0.167,south-southwest,10.1,No
